This is the latest recevied weather packets stored in our database for station/object KC7RJK-2. If no packets are shown the sender has not sent any weather packets the latest 10 day(s).
| Time | Temp. | Humidity | Pressure | Rain* | Wind** | Luminosity | Snow |
|---|---|---|---|---|---|---|---|
| 1778026208 | 20.56° C | 70% | 1014.8 hPa | 0 mm | - | - | - |
| 1778025611 | 20.56° C | 66% | 1014.9 hPa | 0 mm | - | - | - |
| 1778025010 | 20.56° C | 69% | 1015 hPa | 0 mm | - | - | - |
| 1778024410 | 20.56° C | 70% | 1015 hPa | 0 mm | - | - | - |
| 1778023811 | 20.56° C | 67% | 1015.2 hPa | 0 mm | - | - | - |
| 1778023209 | 20.56° C | 68% | 1015.3 hPa | 0 mm | - | - | - |
| 1778022609 | 20° C | 71% | 1015.4 hPa | 0 mm | - | - | - |
| 1778022009 | 20° C | 69% | 1015.4 hPa | 0 mm | - | - | - |
| 1778021409 | 19.44° C | 67% | 1015.6 hPa | 0 mm | - | - | - |
| 1778020808 | 20° C | 68% | 1015.6 hPa | 0 mm | - | - | - |
| 1778020189 | 18.89° C | 71% | 1015.8 hPa | 0 mm | - | - | - |
| 1778019610 | 18.33° C | 71% | 1015.9 hPa | 0 mm | - | - | - |
| 1778019009 | 17.78° C | 74% | 1016 hPa | 0 mm | - | - | - |
| 1778018409 | 17.78° C | 72% | 1016.1 hPa | 0 mm | - | - | - |
| 1778017808 | 17.78° C | 71% | 1016.1 hPa | 0 mm | - | - | - |
| 1778017209 | 17.78° C | 71% | 1016.1 hPa | 0 mm | - | - | - |
| 1778016611 | 17.78° C | 72% | 1016.3 hPa | 0 mm | - | - | - |
| 1778016010 | 17.78° C | 73% | 1016.2 hPa | 0 mm | - | - | - |
| 1778015410 | 17.78° C | 73% | 1016.3 hPa | 0 mm | - | - | - |
| 1778014812 | 17.22° C | 75% | 1016.4 hPa | 0 mm | - | - | - |
| 1778014209 | 16.67° C | 73% | 1016.5 hPa | 0 mm | - | - | - |
| 1778013609 | 16.67° C | 73% | 1016.4 hPa | 0 mm | - | - | - |
| 1778013009 | 16.67° C | 76% | 1016.4 hPa | 0 mm | - | - | - |
| 1778012408 | 16.11° C | 75% | 1016.4 hPa | 0 mm | - | - | - |
| 1778011808 | 16.11° C | 75% | 1016.6 hPa | 0 mm | - | - | - |
* Rain latest hour (hover to see other rain measurements)
** Current wind speed in m/s (hover to see current wind gust speed)